Regional Weather Roundup
Issued by NWS

Home | Current Version | Previous Version | Graphics & Text | Print | Product List | Glossary On
Versions: 1 2 3 4 5 6 7 8 9 10 11 12 13 14 15 16 17 18 19 20 21 22 23 24 25 26 27 28 29 30 31 32 33 34 35 36 37 38 39 40 41 42 43 44 45 46 47 48 49 50
622
ASUS44 KLIX 280305
RWRLA
LOUISIANA WEATHER ROUNDUP
NATIONAL WEATHER SERVICE NEW ORLEANS LA
900 PM CST THU NOV 27 2014

NOTE: "FAIR" INDICATES FEW OR NO CLOUDS BELOW 12,000 FEET WITH NO
      SIGNIFICANT WEATHER AND/OR OBSTRUCTIONS TO VISIBILITY.
      SKY/WX - SKY CONDITION AND SIGNIFICANT WEATHER.
      TMP - AIR TEMPERATURE.    DP   - DEWPOINT TEMPERATURE.
      RH  - RELATIVE HUMIDITY.  PRES - PRESSURE.
      HX  - HEAT INDEX.         WCI  - WIND CHILL INDEX.

*  THESE STATIONS ARE NOT NWS OR FAA STATIONS AND ARE NOT UNDER
   NWS QUALITY CONTROL.

LAZ040-048-061>063-065-066-069-280400-
SOUTHEAST LOUISIANA

CITY           SKY/WX    TMP DP  RH WIND       PRES   REMARKS
N.O. AUDUBON     N/A     50  36  57 MISG        N/A
N.O. INTL ARPT CLEAR     52  34  50 NE13      30.44S
N.O. LAKEFRONT CLEAR     54  36  50 NE17      30.45R
N.O. DOWNTOWN* FAIR      54  30  40 N5        30.45R
SLIDELL        CLEAR     39  35  86 N3        30.45R
BATON ROUGE    CLEAR     42  34  73 CALM      30.45S
BOOTHVILLE     CLEAR     54  39  57 NE9       30.43S
BELLE CHASSE   CLEAR     49  32  52 N5        30.44S
BOGALUSA*        N/A     38  34  85 CALM      30.48R
NEW ROADS*     FAIR      42  34  71 CALM      30.46S
GONZALES*      FAIR      44  35  71 N3        30.44S
HAMMOND*       CLEAR     41  34  75 NE3       30.47S
HOUMA*         CLEAR     45  34  65 CALM      30.44S
PORT FOURCHON* CLEAR     54  39  58 NE9       30.47R

$$

LAZ041-044-053-054-280400-
SOUTHWEST LOUISIANA

CITY           SKY/WX    TMP DP  RH WIND       PRES   REMARKS
LAKE CHARLES   CLEAR     48  36  63 E8        30.44S
LAFAYETTE      CLEAR     46  33  60 N3        30.46R
PATTERSON      CLEAR     43  37  81 CALM        N/A
SALT POINT       N/A     53  37  54 CALM      30.44R
NEW IBERIA     CLEAR     46  34  62 N6        30.46R
CHENAULT AIRPK CLEAR     48  36  62 E6        30.45S

$$

LAZ027-028-280400-
CENTRAL LOUISIANA

CITY           SKY/WX    TMP DP  RH WIND       PRES   REMARKS
FORT POLK      CLEAR     45  34  66 E6        30.44S
ALEXANDRIA INT CLEAR     44  32  62 E7        30.45F
ALEXANDRIA     CLEAR     38  34  85 CALM      30.47S

$$

LAZ001-002-280400-
NORTHWEST LOUISIANA

CITY           SKY/WX    TMP DP  RH WIND       PRES   REMARKS
SHREVEPORT     CLEAR     41  34  76 CALM      30.43F
BARKSDALE AFB  CLEAR     41  31  67 E5        30.44F
DTN SHREVEPORT CLEAR     43  31  62 E3        30.45S

$$

LAZ014-016-280400-
NORTHEAST LOUISIANA

CITY           SKY/WX    TMP DP  RH WIND       PRES   REMARKS
MONROE         CLEAR     37  33  85 CALM      30.49S
TALLULAH       CLEAR     32  29  88 CALM      30.50R

$$




USA.gov is the U.S. government's official web portal to all federal, state and local government web resources and services.